Location: Brompton
(51.4000°N, 0.5333°E)
Time: 08:22:08
(UTC+00:00)

SL-24 R/B - RUBIN 2 - Pass Details

Date: 11 May 2021
Orbit: 582 x 1013 km, 64.6° (Epoch: 12 June)

Event Time Altitude Azimuth Distance (km) Brightness Sun altitude
Rises 22:02:14 0° 317° (NW) 3,467 8.9 -16.3°
Reaches altitude 10° 22:04:52 10° 317° (NW) 2,458 7.8 -16.5°
Maximum altitude 22:10:32 87° 229° (SW) 769 3.9 -16.9°
Enters shadow 22:13:07 30° 142° (SE) 1,297 4.6 -17.0°
